San Antonio, TX

12:20 AM CST on November 23, 2017 (GMT -0600)
San Antonio International

Weather History for KSAT - February, 2014

Change the Weather History Date:

Sunday, February 23, 2014

  Actual Average Record
Temperature  
Mean Temperature 75 °F 57 °F  
Max Temperature 85 °F 69 °F 97 °F (1996)
Min Temperature 64 °F 46 °F 27 °F (1967)
Degree Days  
Heating Degree Days 0 9  
Month to date heating degree days 221 243  
Since 1 July heating degree days 1289 1261  
Cooling Degree Days 10 1  
Month to date cooling degree days 54 19  
Year to date cooling degree days 57 26  
Growing Degree Days 24 (Base 50)    
Moisture  
Dew Point 61 °F    
Average Humidity 69    
Maximum Humidity 93    
Minimum Humidity 44    
Precipitation  
Precipitation T in 0.06 in 2.63 in (1912)
Month to date precipitation 0.21 1.46  
Year to date precipitation 0.44 3.22  
Snow  
Snow 0.00 in - - ()
Month to date snowfall 0.3  
Since 1 July snowfall 0.4  
Snow Depth 0.00 in    
Sea Level Pressure  
Sea Level Pressure 29.92 in    
Wind  
Wind Speed 5 mph (South)    
Max Wind Speed 15 mph    
Max Gust Speed 21 mph    
Visibility 7 miles    
Events Fog , Rain    
T = Trace of Precipitation, MM = Missing Value Source: NWS Daily Summary

Daily Weather History Graph

Daily Weather History Graph

Search for Another Location

Airport or City:

Trip Planner

Search our weather history database for the weather conditions in past years. The results will help you decide how hot, cold, wet, or windy it might be!

Date:

Astronomy

Feb. 23, 2014 Rise Set
Actual Time 7:05 AM CST 6:29 PM CST
Civil Twilight 6:41 AM CST 6:53 PM CST
Nautical Twilight 6:13 AM CST 7:20 PM CST
Astronomical Twilight 5:46 AM CST 7:48 PM CST
Moon 1:52 AM CST 12:46 PM CST
Length of Visible Light 12h 11m
Length of Day
11h 23m
Last Quarter, 38% of the Moon is Illuminated
Feb 23
Last Quarter
Mar 1
New
Mar 8
First Quarter
Mar 16
Full
Mar 23
Last Quarter

Hourly Weather History & Observations

Time (CST) Temp. Heat Index Dew Point Humidity Pressure Visibility Wind Dir Wind Speed Gust Speed Precip Events Conditions
12:51 AM 66.0 °F - 60.1 °F 81% 29.88 in 10.0 mi SSE 8.1 mph - N/A   Overcast
1:47 AM 64.4 °F - 60.8 °F 88% 29.91 in 8.0 mi SSE 5.8 mph - N/A   Overcast
1:51 AM 64.9 °F - 60.1 °F 84% 29.87 in 8.0 mi SSE 5.8 mph - N/A   Overcast
2:51 AM 64.9 °F - 61.0 °F 87% 29.86 in 5.0 mi South 5.8 mph - N/A   Overcast
3:47 AM 64.4 °F - 60.8 °F 88% 29.90 in 5.0 mi South 4.6 mph - N/A   Overcast
3:51 AM 64.9 °F - 62.1 °F 90% 29.86 in 5.0 mi South 4.6 mph - N/A   Overcast
4:51 AM 64.9 °F - 62.1 °F 90% 29.87 in 3.0 mi Calm Calm - N/A   Overcast
5:04 AM 64.4 °F - 60.8 °F 88% 29.91 in 1.5 mi WSW 3.5 mph - N/A   Overcast
5:07 AM 64.4 °F - 62.6 °F 94% 29.91 in 1.0 mi Calm Calm - N/A   Overcast
5:16 AM 64.4 °F - 62.6 °F 94% 29.91 in 0.5 mi Calm Calm - N/A   Overcast
5:25 AM 64.4 °F - 62.6 °F 94% 29.91 in 0.2 mi Calm Calm - N/A   Overcast
5:51 AM 64.0 °F - 62.1 °F 93% 29.88 in 0.2 mi South 3.5 mph - N/A   Overcast
6:51 AM 64.9 °F - 62.1 °F 90% 29.90 in 0.2 mi Calm Calm - N/A   Overcast
7:51 AM 64.9 °F - 63.0 °F 93% 29.92 in 0.2 mi Calm Calm - N/A Fog Fog
8:51 AM 66.0 °F - 63.0 °F 90% 29.94 in 0.2 mi Calm Calm - 0.00 in   Light Drizzle
9:31 AM 68.0 °F - 64.4 °F 88% 29.99 in 3.0 mi WSW 4.6 mph - 0.00 in   Overcast
9:51 AM 68.0 °F - 64.9 °F 90% 29.95 in 4.0 mi SW 6.9 mph - 0.00 in   Overcast
10:13 AM 71.6 °F - 62.6 °F 73% 29.99 in 8.0 mi WSW 4.6 mph - N/A   Mostly Cloudy
10:47 AM 71.6 °F - 62.6 °F 73% 29.99 in 10.0 mi SW 5.8 mph - N/A   Mostly Cloudy
10:51 AM 73.0 °F - 62.1 °F 68% 29.95 in 10.0 mi Variable 4.6 mph - N/A   Mostly Cloudy
11:51 AM 77.0 °F - 62.1 °F 60% 29.94 in 10.0 mi SW 6.9 mph - N/A   Mostly Cloudy
12:02 PM 78.8 °F - 62.6 °F 57% 29.98 in 10.0 mi South 5.8 mph - N/A   Mostly Cloudy
12:51 PM 81.0 °F 81.7 °F 61.0 °F 50% 29.91 in 10.0 mi South 9.2 mph - N/A   Mostly Cloudy
1:51 PM 82.0 °F 82.7 °F 61.0 °F 49% 29.89 in 10.0 mi South 8.1 mph - N/A   Scattered Clouds
2:51 PM 84.0 °F 84.4 °F 61.0 °F 46% 29.86 in 10.0 mi Variable 4.6 mph - N/A   Scattered Clouds
3:51 PM 84.9 °F 84.8 °F 60.1 °F 43% 29.86 in 10.0 mi South 6.9 mph - N/A   Mostly Cloudy
4:51 PM 84.0 °F 84.4 °F 61.0 °F 46% 29.86 in 10.0 mi SSE 6.9 mph - N/A   Mostly Cloudy
5:51 PM 79.0 °F - 61.0 °F 54% 29.88 in 10.0 mi SE 11.5 mph - N/A   Mostly Cloudy
6:51 PM 73.9 °F - 60.1 °F 62% 29.90 in 10.0 mi SE 6.9 mph - N/A   Mostly Cloudy
7:51 PM 73.9 °F - 61.0 °F 64% 29.92 in 10.0 mi Calm Calm - N/A   Mostly Cloudy
8:51 PM 72.0 °F - 60.1 °F 66% 29.95 in 10.0 mi Calm Calm - N/A   Mostly Cloudy
9:51 PM 73.0 °F - 59.0 °F 61% 29.97 in 10.0 mi NE 8.1 mph - N/A   Mostly Cloudy
10:51 PM 72.0 °F - 55.0 °F 55% 29.98 in 10.0 mi NE 10.4 mph - N/A   Overcast
11:49 PM 69.8 °F - 50.0 °F 49% 30.03 in 10.0 mi NE 10.4 mph 19.6 mph N/A   Overcast
11:51 PM 70.0 °F - 50.0 °F 49% 29.98 in 10.0 mi NE 10.4 mph 19.6 mph N/A   Overcast